[[{"header":{"parameterUnit":"m.s-1","parameterCategory":1,"la1":30.2991,"la2":30.254,"lo1":-89.0895,"lo2":-89.0444,"dy":0.0017,"dx":0.0017,"nx":28,"ny":28,"refTime":"2024-07-19T09:00:00:Z","depth":0,"parameterNumber":2,"parameterNumberName":"U-component_of_WINDS"},"data":[0,0,0,0,0,0,0,0,0,0,0,0,0,0,0,0,0,0,0,0,0,0,0,0,0,0,0,0,0,0,0,0,0,0,0,0,0,0,0,0,0,0,0,0,0,0,0,0,0,0,0,0,0,0,0,0,0,0,0.8716,0.8716,0,0.8682,0.8682,0.8682,0.8647,0.8647,0.8646,0.8646,0.861,0.861,0.8609,0,0,0,0,0,0,0,0,0,0,0,0,0,0.8749,0.8749,0.8716,0.8716,0.8715,0.8683,0.8682,0.8682,0.8647,0.8647,0.8646,0.8646,0.8611,0.861,0.8609,0,0,0,0,0,0,0,0,0,0,0,0,0,0.8727,0.8748,0.8716,0.8694,0.8692,0.8683,0.8682,0.8681,0.8648,0.8647,0.8646,0.8646,0.8611,0.861,0.8609,0.8618,0,0,0.8607,0.8607,0,0,0,0,0,0,0,0,0.8728,0.8726,0.8698,0.8696,0.8693,0.8668,0.868,0.866,0.8648,0.8664,0.8646,0.8645,0.863,0.8628,0.8623,0.8617,0.8615,0.8607,0.8606,0.8606,0.8606,0,0,0,0,0,0,0,0.873,0.8727,0.8703,0.8698,0.8695,0.8686,0.8682,0.8676,0.8652,0.8663,0.866,0.8657,0.8629,0.8624,0.8622,0.8615,0.8607,0.8606,0.8606,0.8605,0.8611,0.8612,0,0,0,0,0,0,0.8735,0.8729,0.8704,0.8702,0.8709,0.8686,0.8681,0.8677,0.8652,0.8647,0.8658,0.8655,0.8625,0.8623,0.862,0.8627,0.8606,0.8605,0.8605,0.8611,0.8611,0.8612,0,0,0,0,0,0,0.8736,0.8733,0.8705,0.8714,0.871,0.8686,0.8681,0.8677,0.8672,0.8647,0.8643,0.8657,0.8625,0.8622,0.8619,0.8626,0.8605,0.8604,0.861,0.8611,0.8612,0.8643,0,0,0,0,0,0,0.8737,0.8734,0.8737,0.8715,0.871,0.8705,0.8682,0.8677,0.8671,0.8668,0.8646,0.8642,0.8624,0.862,0.8618,0.8624,0.8604,0.8609,0.861,0.8611,0.8641,0.8645,0.8648,0,0,0,0,0,0.8738,0.8748,0.8738,0.8735,0.8714,0.8705,0.8702,0.8682,0.8671,0.8674,0.8658,0.8642,0.8626,0.862,0.8617,0.8624,0.8609,0.861,0.8611,0.864,0.8644,0.8648,0,0,0,0,0,0,0.8772,0.8745,0.8733,0.8736,0.8723,0.87,0.8703,0.8688,0.8678,0.8676,0.8651,0.8646,0.8645,0.8634,0.8629,0.863,0.8615,0.8616,0.8637,0.8641,0.8645,0.8647,0.8603,0,0,0,0,0,0.878,0.8776,0.8752,0.8756,0.8751,0.8728,0.8723,0.8709,0.8695,0.8689,0.8673,0.8659,0.865,0.8645,0.8636,0.864,0.8633,0.8643,0.8646,0.8649,0.865,0.8648,0.8652,0.8617,0.8617,0.8617,0,0,0.8796,0.878,0.8779,0.8763,0.8751,0.8746,0.8724,0.872,0.8715,0.8688,0.8684,0.8672,0.8654,0.8654,0.8653,0.8645,0.8658,0.8651,0.8653,0.8652,0.865,0.8653,0.8656,0.8618,0.8617,0.8617,0,0,0.8822,0.8811,0.8813,0.8801,0.8784,0.8769,0.8769,0.8747,0.8738,0.8733,0.8712,0.8706,0.8693,0.8681,0.8673,0.8693,0.8677,0.8691,0.8708,0.8707,0.871,0.8712,0.8717,0.872,0.8692,0.8692,0.8692,0,0.8844,0.8837,0.8816,0.8812,0.8805,0.878,0.8781,0.8771,0.8751,0.8746,0.8737,0.8718,0.8705,0.87,0.8705,0.87,0.8698,0.8693,0.8711,0.8713,0.8715,0.872,0.8722,0.8693,0.8693,0.8693,0.8693,0,0.8864,0.8859,0.8862,0.8843,0.8836,0.8836,0.8813,0.8808,0.8794,0.8779,0.8774,0.8757,0.8743,0.8741,0.8727,0.8734,0.8729,0.8716,0.87,0.8721,0.8724,0.8726,0.8696,0.8695,0.8695,0.8694,0,0,0.8911,0.888,0.8881,0.8872,0.885,0.8845,0.8842,0.8829,0.8824,0.8811,0.8807,0.8795,0.8783,0.8774,0.8758,0.8757,0.8772,0.8744,0.8743,0.8749,0.8776,0.8784,0.8787,0.8761,0.8762,0.8762,0.8776,0,0.8932,0.8926,0.8906,0.8905,0.8899,0.8875,0.8872,0.8858,0.8843,0.8835,0.8819,0.8811,0.8796,0.879,0.8788,0.8771,0.8777,0.8769,0.8756,0.8755,0.876,0.879,0.8799,0.8814,0.8778,0.8778,0.8779,0,0.8957,0.8945,0.8944,0.8921,0.8917,0.8915,0.89,0.8893,0.8876,0.8865,0.8855,0.8837,0.8831,0.8817,0.8807,0.8802,0.8795,0.8786,0.8786,0.8783,0.8768,0.8786,0.8818,0.882,0.8781,0.8781,0.8781,0,0.8989,0.8973,0.897,0.8962,0.8936,0.8935,0.8924,0.8906,0.8898,0.8885,0.8879,0.8865,0.8857,0.8846,0.8825,0.8817,0.8817,0.8801,0.8806,0.8807,0.8807,0.8807,0.8837,0.8805,0.8805,0.8805,0.8805,0,0.9014,0.9014,0.8984,0.8981,0.898,0.8956,0.8955,0.8941,0.8925,0.8919,0.8897,0.8891,0.8864,0.8855,0.8838,0.8831,0.8828,0.8818,0.8814,0.882,0.8821,0.8814,0.8812,0.8805,0.8805,0.8805,0.8805,0,0.905,0.903,0.9024,0.8999,0.8993,0.8993,0.8971,0.8967,0.8951,0.8943,0.894,0.8915,0.8903,0.888,0.8862,0.885,0.8846,0.8839,0.8852,0.8849,0.8855,0.8854,0.8881,0.8883,0.8851,0.8851,0.8851,0,0.9067,0.9066,0.9041,0.9035,0.9025,0.9016,0.9008,0.8985,0.8977,0.8956,0.8955,0.8941,0.8928,0.891,0.8889,0.8874,0.8865,0.8876,0.8863,0.8868,0.8863,0.8863,0.8862,0.8878,0.8879,0.8879,0.888,0,0.9099,0.9088,0.9078,0.9064,0.9055,0.9043,0.9029,0.9025,0.8998,0.8991,0.8978,0.8968,0.8949,0.8935,0.8916,0.8903,0.8886,0.8884,0.8884,0.889,0.8897,0.8891,0.8859,0.8883,0.8883,0.8883,0.8882,0.8882,0.9124,0.9122,0.9103,0.9092,0.9079,0.9067,0.9061,0.9045,0.9034,0.9016,0.9003,0.8991,0.8971,0.8945,0.8933,0.8922,0.8914,0.8915,0.8915,0.8915,0.8917,0.8899,0.8919,0.8919,0.8919,0.8919,0.8919,0,0.9153,0.914,0.913,0.9111,0.9102,0.9088,0.9071,0.9064,0.9054,0.9038,0.9026,0.901,0.8996,0.8974,0.8957,0.8952,0.8944,0.8949,0.8948,0.8945,0.8926,0.8927,0.8956,0.8956,0.8956,0.8956,0.8956,0.8956,0.9167,0.9162,0.9149,0.9136,0.9122,0.9111,0.9102,0.909,0.9077,0.906,0.9048,0.9034,0.9015,0.8997,0.8982,0.8976,0.897,0.8977,0.8968,0.895,0.8947,0.8943,0.8944,0.8976,0.8976,0.8988,0.8988,0.8988]},{"header":{"parameterUnit":"m.s-1","parameterCategory":1,"la1":30.2991,"la2":30.254,"lo1":-89.0895,"lo2":-89.0444,"dy":0.0017,"dx":0.0017,"nx":28,"ny":28,"refTime":"2024-07-19T09:00:00:Z","depth":0,"parameterNumber":3,"parameterNumberName":"V-component_of_WINDS"},"data":[0,0,0,0,0,0,0,0,0,0,0,0,0,0,0,0,0,0,0,0,0,0,0,0,0,0,0,0,0,0,0,0,0,0,0,0,0,0,0,0,0,0,0,0,0,0,0,0,0,0,0,0,0,0,0,0,0,0,4.2611,4.2611,0,4.2682,4.2682,4.2683,4.2645,4.2643,4.2641,4.2639,4.2708,4.2712,4.2716,0,0,0,0,0,0,0,0,0,0,0,0,0,4.2436,4.244,4.2611,4.2611,4.2612,4.2681,4.2682,4.2683,4.2645,4.2643,4.2641,4.2639,4.2707,4.2712,4.2716,0,0,0,0,0,0,0,0,0,0,0,0,0,4.251,4.2441,4.261,4.2602,4.2602,4.2681,4.2682,4.2684,4.2646,4.2643,4.264,4.2637,4.2706,4.2711,4.2717,4.2807,0,0,4.2733,4.2735,0,0,0,0,0,0,0,0,4.2506,4.2516,4.2602,4.2603,4.2603,4.2652,4.2646,4.2725,4.2647,4.2629,4.2639,4.2636,4.2692,4.2698,4.2718,4.2811,4.2814,4.2734,4.2737,4.2739,4.2741,0,0,0,0,0,0,0,4.2501,4.2513,4.2638,4.2603,4.2604,4.2592,4.26,4.2661,4.2675,4.263,4.2628,4.2637,4.2691,4.2712,4.2719,4.2815,4.2733,4.2738,4.2742,4.2744,4.2981,4.2984,0,0,0,0,0,0,4.2497,4.2509,4.2636,4.2641,4.2546,4.2598,4.2606,4.2639,4.2675,4.2677,4.2639,4.2635,4.2705,4.2713,4.2721,4.2828,4.2739,4.2744,4.2747,4.2978,4.2982,4.2985,0,0,0,0,0,0,4.2493,4.2509,4.2633,4.2574,4.2589,4.2604,4.2641,4.2642,4.2663,4.2681,4.2683,4.2659,4.2703,4.2713,4.2786,4.283,4.2747,4.2752,4.2975,4.298,4.2984,4.3043,0,0,0,0,0,0,4.2488,4.2508,4.2544,4.2575,4.2593,4.2699,4.2644,4.2645,4.2673,4.2668,4.27,4.2703,4.2701,4.2778,4.2791,4.2836,4.2756,4.2971,4.2977,4.2982,4.3037,4.3049,4.3059,0,0,0,0,0,4.2482,4.2558,4.2546,4.2562,4.2639,4.2702,4.2711,4.2709,4.2677,4.2712,4.2723,4.2702,4.2823,4.2785,4.28,4.2847,4.2968,4.2975,4.2982,4.3032,4.3047,4.3059,0,0,0,0,0,0,4.2531,4.2562,4.2549,4.2638,4.2667,4.2695,4.274,4.2725,4.2763,4.2757,4.2751,4.2758,4.2833,4.2847,4.2805,4.2935,4.289,4.29,4.2923,4.2937,4.2948,4.2943,4.276,0,0,0,0,0,4.2552,4.2602,4.2626,4.2701,4.2717,4.2726,4.2753,4.2748,4.2778,4.2791,4.2807,4.2836,4.288,4.2909,4.2951,4.3038,4.3043,4.3077,4.3088,4.3097,4.3106,4.315,4.3165,4.3008,4.3008,4.3008,0,0,4.2596,4.2619,4.2651,4.2712,4.2734,4.2784,4.2737,4.2792,4.2828,4.2799,4.2868,4.288,4.2912,4.2991,4.3027,4.3005,4.315,4.3106,4.3113,4.3117,4.3159,4.3174,4.3187,4.3013,4.3012,4.3011,0,0,4.2702,4.2725,4.279,4.2812,4.2847,4.2852,4.2867,4.2896,4.2904,4.2973,4.2951,4.2992,4.3069,4.3092,4.3113,4.3223,4.3203,4.3236,4.3294,4.3337,4.3349,4.336,4.3397,4.3411,4.3245,4.3245,4.3245,0,4.2752,4.2828,4.2824,4.2881,4.2906,4.2881,4.2945,4.2966,4.3012,4.303,4.3005,4.3098,4.3118,4.3201,4.3227,4.3246,4.3261,4.3233,4.3348,4.3359,4.3369,4.3404,4.3419,4.3249,4.3248,4.3248,4.3248,0,4.2887,4.2939,4.2987,4.3031,4.3062,4.3122,4.3125,4.3156,4.3147,4.3154,4.3222,4.3245,4.3289,4.3308,4.3301,4.3389,4.3374,4.3349,4.3304,4.3388,4.3421,4.3434,4.3254,4.3253,4.3252,4.3251,0,0,4.3028,4.3068,4.3085,4.3103,4.3138,4.3177,4.3233,4.3277,4.3303,4.3334,4.338,4.3444,4.342,4.3444,4.3438,4.3476,4.3559,4.3446,4.3446,4.3465,4.3655,4.3673,4.3689,4.3546,4.3549,4.3551,4.3651,0,4.3135,4.3236,4.3232,4.3325,4.3371,4.3346,4.3395,4.342,4.3426,4.3465,4.3472,4.3517,4.3482,4.3496,4.3533,4.3541,4.3597,4.3534,4.3587,4.3589,4.3579,4.3707,4.3727,4.3822,4.3664,4.3667,4.3668,0,4.3274,4.331,4.3407,4.3431,4.3451,4.3495,4.3533,4.3571,4.3597,4.3599,4.3624,4.3611,4.3666,4.3619,4.3692,4.365,4.367,4.3677,4.3681,4.3686,4.3634,4.3714,4.3852,4.3866,4.3689,4.3687,4.3686,0,4.3365,4.3437,4.3504,4.3521,4.3551,4.3582,4.3596,4.3619,4.3645,4.3677,4.3693,4.3731,4.3752,4.378,4.3777,4.3744,4.3851,4.3805,4.3852,4.3853,4.3877,4.3875,4.4019,4.3891,4.3891,4.3891,4.389,0,4.3485,4.3546,4.3545,4.3587,4.3652,4.3645,4.3709,4.372,4.374,4.3781,4.3761,4.3799,4.3793,4.383,4.3828,4.3888,4.3897,4.3899,4.3898,4.3901,4.39,4.3914,4.3907,4.3894,4.3894,4.3893,4.3892,0,4.3599,4.3602,4.3673,4.3694,4.3701,4.3748,4.3765,4.3803,4.3806,4.3858,4.387,4.3875,4.3918,4.3917,4.3967,4.3965,4.4038,4.4029,4.4029,4.4027,4.4075,4.407,4.4232,4.4252,4.4112,4.4113,4.4115,0,4.3676,4.3721,4.3747,4.3773,4.3788,4.3831,4.3856,4.3849,4.3876,4.3907,4.394,4.3981,4.4014,4.4083,4.409,4.4127,4.4118,4.4173,4.4124,4.4124,4.4118,4.4115,4.4118,4.4182,4.4184,4.4185,4.4186,0,4.381,4.3808,4.3846,4.3883,4.3913,4.3942,4.3969,4.3991,4.3987,4.4017,4.4061,4.4086,4.4135,4.4175,4.4209,4.4221,4.4202,4.4201,4.4214,4.4218,4.4215,4.4216,4.4054,4.4198,4.4197,4.4196,4.4195,4.4195,4.3907,4.3945,4.3968,4.4009,4.4028,4.4052,4.4088,4.4095,4.4132,4.4171,4.4164,4.4212,4.4233,4.4278,4.4292,4.4328,4.4309,4.4328,4.4333,4.4338,4.4342,4.421,4.4335,4.4334,4.4334,4.4334,4.4334,0,4.4039,4.4052,4.409,4.4127,4.4159,4.4138,4.4165,4.4193,4.4235,4.4257,4.4289,4.4337,4.4375,4.4384,4.442,4.4446,4.4439,4.4456,4.4454,4.4456,4.4358,4.4343,4.4462,4.4462,4.4462,4.4461,4.4461,4.4461,4.4112,4.4174,4.4174,4.4244,4.4256,4.4303,4.432,4.4341,4.4358,4.4413,4.4444,4.445,4.4465,4.4502,4.4534,4.4536,4.4549,4.457,4.4568,4.4476,4.4464,4.4451,4.4437,4.4573,4.4574,4.4663,4.4664,4.4665]}]]